User: anonymous
Location: Albany
(35.0000°S, 118.0000°E)
Time: 01:21:47
(UTC-04:00)
Language:

SJ-6B - Orbit

View from above orbital plane
View from above orbital plane
View from above satellite
View from above satellite

Ground track
Ground track

The orbit data is extracted from the following two-line orbital elements,

1 28415U 04035C   14292.62058151  .00005120  00000-0  37389-3 0  3241
2 28415 097.8021 298.0569 0057307 168.7525 191.4996 15.02797782552430
Epoch (UTC): 19 October 2014 14:53:38
Eccentricity: 0.0057307
inclination: 97.8021°
perigee height: 518 km
apogee height: 598 km
right ascension of ascending node: 298.0569°
argument of perigee: 168.7525°
revolutions per day: 15.02797782
mean anomaly at epoch: 191.4996°
orbit number at epoch: 55243

The dashed part of the orbit path shows where the satellite is in the earth's shadow,  

DLR